Time,TemperatureF,DewpointF,PressureIn,WindDirection,WindDirectionDegrees,WindSpeedMPH,WindSpeedGustMPH,Humidity,HourlyPrecipIn,Conditions,Clouds,dailyrainin,SoftwareType,DateUTC
2013-04-06 00:21:00,62.8,57.0,29.97,North,352,1.0,4.0,82,0.00,,,0.00,weatherlink.com 1.10,2013-04-06 04:21:00,
2013-04-06 00:36:00,62.1,57.0,29.97,WNW,297,1.0,3.0,84,0.00,,,0.00,weatherlink.com 1.10,2013-04-06 04:36:00,
2013-04-06 01:21:00,62.2,58.0,29.97,NW,314,0.0,2.0,85,0.00,,,0.00,weatherlink.com 1.10,2013-04-06 05:21:00,
2013-04-06 01:36:00,62.3,58.0,29.97,WNW,302,1.0,2.0,85,0.00,,,0.00,weatherlink.com 1.10,2013-04-06 05:36:00,
2013-04-06 02:06:00,62.9,58.0,29.97,NNW,333,2.0,2.0,85,0.00,,,0.00,weatherlink.com 1.10,2013-04-06 06:06:00,
2013-04-06 03:21:00,62.8,59.0,29.97,North,6,2.0,4.0,86,0.00,,,0.00,weatherlink.com 1.10,2013-04-06 07:21:00,
2013-04-06 03:36:00,62.7,59.0,29.97,NNE,13,1.0,4.0,87,0.00,,,0.00,weatherlink.com 1.10,2013-04-06 07:36:00,
2013-04-06 03:51:00,62.6,59.0,29.97,NNE,22,2.0,6.0,87,0.00,,,0.00,weatherlink.com 1.10,2013-04-06 07:51:00,
2013-04-06 04:06:00,62.4,59.0,29.97,North,8,1.0,3.0,87,0.00,,,0.00,weatherlink.com 1.10,2013-04-06 08:06:00,
2013-04-06 04:36:00,61.8,58.0,29.97,NNE,26,1.0,4.0,88,0.00,,,0.00,weatherlink.com 1.10,2013-04-06 08:36:00,
2013-04-06 04:51:00,61.3,57.0,29.97,NNE,15,1.0,3.0,87,0.00,,,0.00,weatherlink.com 1.10,2013-04-06 08:51:00,
2013-04-06 05:06:00,61.1,57.0,29.97,NNE,24,1.0,5.0,87,0.00,,,0.00,weatherlink.com 1.10,2013-04-06 09:06:00,
2013-04-06 05:21:00,61.1,57.0,29.98,North,11,2.0,4.0,87,0.00,,,0.00,weatherlink.com 1.10,2013-04-06 09:21:00,
2013-04-06 05:36:00,61.2,57.0,29.99,North,360,0.0,4.0,86,0.00,,,0.00,weatherlink.com 1.10,2013-04-06 09:36:00,
2013-04-06 05:51:00,61.1,57.0,30.00,North,360,1.0,5.0,87,0.00,,,0.00,weatherlink.com 1.10,2013-04-06 09:51:00,
2013-04-06 06:06:00,60.7,57.0,30.01,North,3,2.0,3.0,87,0.00,,,0.00,weatherlink.com 1.10,2013-04-06 10:06:00,
2013-04-06 06:21:00,60.6,57.0,30.02,North,6,0.0,4.0,87,0.00,,,0.00,weatherlink.com 1.10,2013-04-06 10:21:00,
2013-04-06 06:36:00,60.4,56.0,30.02,NNW,339,2.0,3.0,86,0.00,,,0.00,weatherlink.com 1.10,2013-04-06 10:36:00,
2013-04-06 07:06:00,60.0,56.0,30.02,NNE,29,2.0,4.0,86,0.00,,,0.00,weatherlink.com 1.10,2013-04-06 11:06:00,
2013-04-06 07:21:00,59.7,55.0,30.02,NNE,19,1.0,4.0,85,0.00,,,0.00,weatherlink.com 1.10,2013-04-06 11:21:00,
2013-04-06 07:36:00,60.0,56.0,30.03,North,360,1.0,3.0,86,0.00,,,0.00,weatherlink.com 1.10,2013-04-06 11:36:00,
2013-04-06 07:51:00,60.5,56.0,30.04,NNE,16,4.0,4.0,85,0.00,,,0.00,weatherlink.com 1.10,2013-04-06 11:51:00,
2013-04-06 08:07:00,61.7,57.0,30.05,NNE,16,1.0,3.0,84,0.00,,,0.00,weatherlink.com 1.10,2013-04-06 12:07:00,
2013-04-06 08:21:00,62.3,57.0,30.05,NNE,33,3.0,3.0,82,0.00,,,0.00,weatherlink.com 1.10,2013-04-06 12:21:00,
2013-04-06 08:36:00,62.2,57.0,30.05,North,351,2.0,3.0,83,0.00,,,0.00,weatherlink.com 1.10,2013-04-06 12:36:00,
2013-04-06 08:52:00,62.1,56.0,30.05,NNE,33,2.0,5.0,81,0.00,,,0.00,weatherlink.com 1.10,2013-04-06 12:52:00,
2013-04-06 09:07:00,62.8,56.0,30.06,NE,36,2.0,4.0,79,0.00,,,0.00,weatherlink.com 1.10,2013-04-06 13:07:00,
2013-04-06 09:37:00,64.5,57.0,30.06,NNE,15,0.0,3.0,76,0.00,,,0.00,weatherlink.com 1.10,2013-04-06 13:37:00,
2013-04-06 09:52:00,65.2,57.0,30.05,NNE,26,3.0,3.0,74,0.00,,,0.00,weatherlink.com 1.10,2013-04-06 13:52:00,
2013-04-06 10:07:00,65.0,56.0,30.06,North,8,1.0,6.0,72,0.00,,,0.00,weatherlink.com 1.10,2013-04-06 14:07:00,
2013-04-06 10:22:00,66.2,57.0,30.05,NNE,33,1.0,5.0,72,0.00,,,0.00,weatherlink.com 1.10,2013-04-06 14:22:00,
2013-04-06 10:37:00,66.9,57.0,30.05,NNE,23,1.0,5.0,70,0.00,,,0.00,weatherlink.com 1.10,2013-04-06 14:37:00,
2013-04-06 11:07:00,68.7,58.0,30.05,NNE,30,2.0,6.0,68,0.00,,,0.00,weatherlink.com 1.10,2013-04-06 15:07:00,
2013-04-06 11:22:00,69.4,58.0,30.05,NE,40,3.0,4.0,68,0.00,,,0.00,weatherlink.com 1.10,2013-04-06 15:22:00,
2013-04-06 11:37:00,69.7,58.0,30.05,NNE,18,1.0,3.0,66,0.00,,,0.00,weatherlink.com 1.10,2013-04-06 15:37:00,
2013-04-06 11:52:00,71.3,59.0,30.06,NNE,19,2.0,4.0,65,0.00,,,0.00,weatherlink.com 1.10,2013-04-06 15:52:00,
2013-04-06 12:07:00,72.6,59.0,30.06,East,100,1.0,2.0,63,0.00,,,0.00,weatherlink.com 1.10,2013-04-06 16:07:00,
2013-04-06 12:22:00,73.0,59.0,30.07,NNW,348,1.0,3.0,62,0.00,,,0.00,weatherlink.com 1.10,2013-04-06 16:22:00,
2013-04-06 12:37:00,73.1,60.0,30.07,NW,326,2.0,3.0,64,0.00,,,0.00,weatherlink.com 1.10,2013-04-06 16:37:00,
2013-04-06 12:52:00,72.9,59.0,30.06,NNE,23,2.0,2.0,63,0.00,,,0.00,weatherlink.com 1.10,2013-04-06 16:52:00,
2013-04-06 13:07:00,73.4,59.0,30.05,North,11,1.0,3.0,62,0.00,,,0.00,weatherlink.com 1.10,2013-04-06 17:07:00,
2013-04-06 13:22:00,73.7,60.0,30.05,ENE,71,1.0,4.0,63,0.00,,,0.00,weatherlink.com 1.10,2013-04-06 17:22:00,
2013-04-06 13:37:00,76.4,60.0,30.05,South,180,1.0,6.0,57,0.00,,,0.00,weatherlink.com 1.10,2013-04-06 17:37:00,
2013-04-06 13:52:00,76.7,61.0,30.05,NNE,19,1.0,5.0,58,0.00,,,0.00,weatherlink.com 1.10,2013-04-06 17:52:00,
2013-04-06 14:07:00,75.5,59.0,30.04,SE,135,1.0,4.0,56,0.00,,,0.00,weatherlink.com 1.10,2013-04-06 18:07:00,
2013-04-06 14:22:00,75.1,60.0,30.03,NNW,339,1.0,7.0,59,0.00,,,0.00,weatherlink.com 1.10,2013-04-06 18:22:00,
2013-04-06 14:37:00,77.2,61.0,30.03,North,353,1.0,4.0,57,0.00,,,0.00,weatherlink.com 1.10,2013-04-06 18:37:00,
2013-04-06 14:52:00,78.2,61.0,30.03,NNW,347,1.0,8.0,56,0.00,,,0.00,weatherlink.com 1.10,2013-04-06 18:52:00,
2013-04-06 15:08:00,78.6,59.0,30.02,ESE,110,4.0,4.0,52,0.00,,,0.00,weatherlink.com 1.10,2013-04-06 19:08:00,
2013-04-06 15:22:00,77.9,61.0,30.01,NNE,12,1.0,3.0,56,0.00,,,0.00,weatherlink.com 1.10,2013-04-06 19:22:00,
2013-04-06 15:37:00,78.9,62.0,30.01,NW,314,1.0,4.0,56,0.00,,,0.00,weatherlink.com 1.10,2013-04-06 19:37:00,
2013-04-06 15:53:00,78.4,63.0,30.01,WNW,290,4.0,7.0,60,0.00,,,0.00,weatherlink.com 1.10,2013-04-06 19:53:00,
2013-04-06 16:08:00,74.9,64.0,30.01,West,268,2.0,14.0,69,0.00,,,0.00,weatherlink.com 1.10,2013-04-06 20:08:00,
2013-04-06 16:23:00,73.5,63.0,30.01,West,268,4.0,9.0,70,0.00,,,0.00,weatherlink.com 1.10,2013-04-06 20:23:00,
2013-04-06 16:38:00,74.3,63.0,30.01,West,273,1.0,7.0,67,0.00,,,0.00,weatherlink.com 1.10,2013-04-06 20:38:00,
2013-04-06 16:53:00,75.0,63.0,30.01,WNW,296,1.0,3.0,67,0.00,,,0.00,weatherlink.com 1.10,2013-04-06 20:53:00,
2013-04-06 17:08:00,75.6,63.0,30.01,WNW,284,1.0,4.0,65,0.00,,,0.00,weatherlink.com 1.10,2013-04-06 21:08:00,
2013-04-06 17:23:00,75.2,63.0,30.01,West,260,1.0,4.0,66,0.00,,,0.00,weatherlink.com 1.10,2013-04-06 21:23:00,
2013-04-06 17:38:00,75.6,64.0,30.00,WNW,283,1.0,4.0,67,0.00,,,0.00,weatherlink.com 1.10,2013-04-06 21:38:00,
2013-04-06 17:53:00,75.5,64.0,30.00,NW,316,1.0,3.0,67,0.00,,,0.00,weatherlink.com 1.10,2013-04-06 21:53:00,
2013-04-06 18:08:00,75.3,64.0,30.01,NNW,336,1.0,2.0,67,0.00,,,0.00,weatherlink.com 1.10,2013-04-06 22:08:00,
2013-04-06 18:23:00,73.9,63.0,30.01,NW,314,0.0,2.0,69,0.00,,,0.00,weatherlink.com 1.10,2013-04-06 22:23:00,
2013-04-06 18:38:00,72.5,63.0,30.02,NW,316,1.0,2.0,71,0.00,,,0.00,weatherlink.com 1.10,2013-04-06 22:38:00,
2013-04-06 18:53:00,70.2,62.0,30.02,NNW,330,0.0,2.0,74,0.00,,,0.00,weatherlink.com 1.10,2013-04-06 22:53:00,
2013-04-06 19:08:00,69.6,62.0,30.02,NNW,331,0.0,2.0,76,0.00,,,0.00,weatherlink.com 1.10,2013-04-06 23:08:00,
2013-04-06 19:23:00,69.0,62.0,30.03,NW,308,0.0,2.0,77,0.00,,,0.00,weatherlink.com 1.10,2013-04-06 23:23:00,
2013-04-06 19:38:00,68.4,62.0,30.04,NW,308,0.0,1.0,79,0.00,,,0.00,weatherlink.com 1.10,2013-04-06 23:38:00,
2013-04-06 19:53:00,67.7,61.0,30.04,NW,310,1.0,1.0,80,0.00,,,0.00,weatherlink.com 1.10,2013-04-06 23:53:00,
2013-04-06 20:08:00,66.8,61.0,30.04,NNW,335,0.0,1.0,82,0.00,,,0.00,weatherlink.com 1.10,2013-04-07 00:08:00,
2013-04-06 20:23:00,66.2,61.0,30.05,NNW,334,0.0,0.0,83,0.00,,,0.00,weatherlink.com 1.10,2013-04-07 00:23:00,
2013-04-06 20:38:00,66.2,61.0,30.05,NNW,342,0.0,1.0,84,0.00,,,0.00,weatherlink.com 1.10,2013-04-07 00:38:00,
2013-04-06 20:53:00,65.6,61.0,30.05,SW,235,0.0,0.0,86,0.00,,,0.00,weatherlink.com 1.10,2013-04-07 00:53:00,
2013-04-06 21:08:00,65.6,62.0,30.06,WSW,258,0.0,0.0,87,0.00,,,0.00,weatherlink.com 1.10,2013-04-07 01:08:00,
2013-04-06 21:23:00,65.5,62.0,30.06,WNW,302,0.0,0.0,87,0.00,,,0.00,weatherlink.com 1.10,2013-04-07 01:23:00,
2013-04-06 21:38:00,65.5,62.0,30.07,WNW,302,0.0,0.0,87,0.00,,,0.00,weatherlink.com 1.10,2013-04-07 01:38:00,
2013-04-06 21:53:00,65.3,62.0,30.08,WNW,302,0.0,0.0,88,0.00,,,0.00,weatherlink.com 1.10,2013-04-07 01:53:00,
2013-04-06 22:08:00,64.8,62.0,30.08,WNW,302,0.0,0.0,89,0.00,,,0.00,weatherlink.com 1.10,2013-04-07 02:08:00,
2013-04-06 22:23:00,65.0,62.0,30.08,WNW,302,0.0,0.0,89,0.00,,,0.00,weatherlink.com 1.10,2013-04-07 02:23:00,
2013-04-06 22:38:00,64.3,61.0,30.08,WNW,302,0.0,0.0,89,0.00,,,0.00,weatherlink.com 1.10,2013-04-07 02:38:00,
2013-04-06 22:53:00,63.5,61.0,30.09,WNW,302,0.0,0.0,90,0.00,,,0.00,weatherlink.com 1.10,2013-04-07 02:53:00,
2013-04-06 23:08:00,63.7,61.0,30.08,WNW,302,0.0,0.0,92,0.00,,,0.00,weatherlink.com 1.10,2013-04-07 03:08:00,
2013-04-06 23:23:00,63.2,61.0,30.07,WNW,302,0.0,0.0,92,0.00,,,0.00,weatherlink.com 1.10,2013-04-07 03:23:00,
2013-04-06 23:38:00,62.5,60.0,30.09,WNW,302,0.0,0.0,92,0.00,,,0.00,weatherlink.com 1.10,2013-04-07 03:38:00,
2013-04-06 23:53:00,62.1,60.0,30.09,WNW,302,0.0,0.0,93,0.00,,,0.00,weatherlink.com 1.10,2013-04-07 03:53:00,